Edmonton City Centre Airport, Alberta

Past 24 Hour Conditions

Date / Time
(MST)
Conditions Temp
(°C)
Humidity
(%)
Dew Point
(°C)
Wind
(km/h)
Pressure
(kPa)
Visibility
(km)
26 January 2015
3:00 Cloudy 2   74 -2 WSW 4 101.2 15
2:00 Cloudy 3 69 -2 W 4 101.2 15
1:00 Cloudy 3 68 -2 W 6 101.2 15
00:00 Partly Cloudy 4 63 -3 WSW 7 101.2 15
25 January 2015
23:00 Mostly Cloudy 6 51 -3 WSW 7 101.2 15
22:00 Cloudy 7 48 -4 W 15 101.3 15
21:00 Cloudy 8 47 -3 WNW 15 101.3 15
20:00 Mostly Cloudy 7 51 -3 WSW 13 101.3 15
19:00 Mostly Cloudy 5 58 -3 WNW 7 101.2 15
18:00 Cloudy 7 49 -3 WNW 13 101.1 15
17:00 Cloudy 8 45 -3 WNW 19 101.1 15
16:00 Cloudy 8 48 -2 WNW 17 101.0 15
15:00 Sunny 9   50 -1 W 19 100.9 15
14:00 Sunny 9   51 0 WNW 15 100.8 15
13:00 Sunny 8 58 0 W 15 100.8 15
12:00 Sunny 7 60 -1 W 13 100.8 15
11:00 Sunny 6 59 -1 WSW 15 100.8 15
10:00 Sunny 5 64 -2 WSW 9 100.7 15
9:00 Sunny 4 69 -2 SW 9 100.6 15
8:00 Clear 3 73 -2 SW 13 100.6 15
7:00 Clear 3 73 -1 SSW 13 100.6 15
6:00 Mainly Clear 3 72 -2 SSW 17 100.6 15
5:00 Mostly Cloudy 4 66 -2 SW 11 100.7 15
4:00 Mainly Clear 4 61 -3 S 20 100.7 15
3:00 Cloudy 4 61 -3 SSE 17 100.8 15
N/A Not available
↑ Highest temperature
↓ Lowest temperature

If you require additional historical weather information, please visit Climate Data Online.

What we are doing

Date modified: